Location: Columbus
(29.5618°N, 96.6770°W)
Time: 13:55:31
(UTC-05:00)

Iridium 59 - Visible Passes

Search period start: 23 August 2014 00:00
Search period end: 02 September 2014 00:00
Orbit: 776 x 779 km, 86.4° (Epoch: 23 August)

Date Brightness Start Highest point End Pass type
(mag) Time Alt. Az. Time Alt. Az. Time Alt. Az.
23 Aug 7.6 04:05:06 10° NNW 04:05:06 10° NNW 04:05:10 10° NNW visible
24 Aug 7.7 03:31:52 12° N 03:31:52 12° N 03:32:09 10° N visible
25 Aug 8.0 02:58:38 10° N 02:58:38 10° N 02:58:39 10° N visible
